Andalusia, AL

12:39 PM CDT on May 26, 2017 (GMT -0500)
Andalusia

Weather History for K79J - December, 2013

Change the Weather History Date:

Sunday, December 22, 2013

  Actual Average (KCEW) Record (KCEW)
Temperature  
Mean Temperature 66 °F -  
Max Temperature 75 °F 58 °F 77 °F (1992)
Min Temperature 57 °F 38 °F 19 °F (1976)
Cooling Degree Days 1    
Growing Degree Days 16 (Base 50)    
Moisture  
Dew Point 64 °F    
Average Humidity 88    
Maximum Humidity 94    
Minimum Humidity 79    
Precipitation  
Precipitation 2.54 in - - ()
Sea Level Pressure  
Sea Level Pressure 29.97 in    
Wind  
Wind Speed 7 mph (NNW)    
Max Wind Speed 21 mph    
Max Gust Speed 29 mph    
Visibility 5 miles    
Events Rain    
Averages and records for this station are not official NWS values.
T = Trace of Precipitation, MM = Missing Value Source: NWS Daily Summary

Daily Weather History Graph

Daily Weather History Graph

Search for Another Location

Airport or City:

Trip Planner

Search our weather history database for the weather conditions in past years. The results will help you decide how hot, cold, wet, or windy it might be!

Date:

Astronomy

Dec. 22, 2013 Rise Set
Actual Time 6:40 AM CST 4:47 PM CST
Civil Twilight 6:14 AM CST 5:14 PM CST
Nautical Twilight 5:43 AM CST 5:44 PM CST
Astronomical Twilight 5:14 AM CST 6:14 PM CST
Moon 9:41 PM CST (12/22) 9:53 AM CST (12/22)
Length of Visible Light 11h 00m
Length of Day
10h 06m
Waning Gibbous, 76% of the Moon is Illuminated
Dec 22
Waning Gibbous
Dec 25
Last Quarter
Jan 1
New
Jan 7
First Quarter
Jan 15
Full

Hourly Weather History & Observations

Time (CST) Temp. Dew Point Humidity Pressure Visibility Wind Dir Wind Speed Gust Speed Precip Events Conditions
12:05 AM 75.2 °F 69.8 °F 83% 29.94 in 10.0 mi Variable 6.9 mph 19.6 mph N/A   Overcast
12:56 AM 75.9 °F 69.1 °F 79% 29.93 in 10.0 mi SSW 8.1 mph 19.6 mph 0.00 in   Overcast
1:07 AM 75.2 °F 69.8 °F 83% 29.94 in 10.0 mi SSW 8.1 mph 19.6 mph N/A   Overcast
1:33 AM 75.2 °F 69.8 °F 83% 29.93 in 10.0 mi SSW 10.4 mph 19.6 mph N/A   Mostly Cloudy
1:49 AM 75.2 °F 69.8 °F 83% 29.93 in 10.0 mi South 9.2 mph - N/A   Mostly Cloudy
1:56 AM 75.0 °F 69.1 °F 82% 29.91 in 10.0 mi South 8.1 mph 16.1 mph N/A   Overcast
2:56 AM 75.0 °F 69.1 °F 82% 29.91 in 10.0 mi Variable 5.8 mph 17.3 mph N/A   Overcast
3:56 AM 75.0 °F 69.1 °F 82% 29.91 in 10.0 mi SSW 11.5 mph 26.5 mph N/A   Overcast
4:32 AM 75.2 °F 69.8 °F 83% 29.91 in 10.0 mi SSW 11.5 mph 24.2 mph 0.00 in Rain Light Rain
4:56 AM 75.0 °F 69.1 °F 82% 29.89 in 8.0 mi SSW 11.5 mph 28.8 mph 0.00 in Rain Light Rain
5:56 AM 75.0 °F 70.0 °F 84% 29.91 in 10.0 mi SSW 9.2 mph 16.1 mph 0.01 in   Overcast
6:32 AM 73.4 °F 69.8 °F 88% 29.92 in 6.0 mi SSW 9.2 mph 16.1 mph 0.02 in Rain Light Rain
6:56 AM 75.0 °F 70.0 °F 84% 29.92 in 9.0 mi South 9.2 mph 19.6 mph 0.02 in   Overcast
7:09 AM 73.4 °F 69.8 °F 88% 29.94 in 2.5 mi SSW 8.1 mph 19.6 mph 0.02 in Rain Rain
7:13 AM 73.4 °F 69.8 °F 88% 29.94 in 1.8 mi SSW 8.1 mph 19.6 mph 0.05 in Rain Heavy Rain
7:18 AM 73.4 °F 69.8 °F 88% 29.95 in 2.0 mi SSW 8.1 mph - 0.05 in Rain Light Rain
7:30 AM 73.4 °F 69.8 °F 88% 29.95 in 1.5 mi SW 10.4 mph - 0.12 in Rain Rain
7:36 AM 73.4 °F 69.8 °F 88% 29.95 in 3.0 mi SW 6.9 mph - 0.13 in Rain Light Rain
7:56 AM 75.0 °F 70.0 °F 84% 29.96 in 6.0 mi Variable 6.9 mph 16.1 mph 0.14 in Rain Light Rain
8:06 AM 75.2 °F 71.6 °F 89% 29.97 in 5.0 mi SSW 8.1 mph - 0.01 in Rain Light Rain
8:25 AM 75.2 °F 71.6 °F 89% 29.98 in 2.5 mi SW 8.1 mph - 0.04 in Rain Light Rain
8:32 AM 75.2 °F 71.6 °F 89% 29.98 in 5.0 mi West 6.9 mph - 0.04 in Rain Light Rain
8:41 AM 73.4 °F 71.6 °F 94% 29.98 in 6.0 mi SSW 6.9 mph - 0.05 in Rain Light Rain
8:56 AM 75.0 °F 71.1 °F 87% 29.97 in 8.0 mi WSW 5.8 mph - 0.05 in   Overcast
9:03 AM 73.4 °F 69.8 °F 88% 29.98 in 10.0 mi NNW 9.2 mph - N/A   Overcast
9:09 AM 69.8 °F 64.4 °F 83% 30.00 in 10.0 mi NW 11.5 mph - 0.00 in Rain Light Rain
9:25 AM 68.0 °F 64.4 °F 88% 30.02 in 9.0 mi Variable 6.9 mph 17.3 mph 0.04 in Rain Light Rain
9:47 AM 66.2 °F 62.6 °F 88% 30.01 in 10.0 mi NNW 11.5 mph 16.1 mph 0.05 in   Overcast
9:56 AM 66.0 °F 62.1 °F 87% 29.99 in 10.0 mi North 6.9 mph - 0.06 in Rain Light Rain
10:22 AM 66.2 °F 62.6 °F 88% 30.01 in 6.0 mi North 6.9 mph - 0.02 in Rain Light Rain
10:49 AM 66.2 °F 62.6 °F 88% 30.00 in 2.5 mi NNE 5.8 mph - 0.06 in Rain Light Rain
10:56 AM 66.0 °F 62.1 °F 87% 29.99 in 9.0 mi North 4.6 mph - 0.06 in Rain Light Rain
11:02 AM 66.2 °F 62.6 °F 88% 30.00 in 1.8 mi North 6.9 mph - 0.07 in Rain Heavy Rain
11:06 AM 66.2 °F 62.6 °F 88% 30.00 in 1.0 mi North 4.6 mph - 0.12 in Rain Heavy Rain
11:13 AM 66.2 °F 62.6 °F 88% 30.00 in 0.8 mi Calm Calm - 0.18 in Rain Heavy Rain
11:17 AM 64.4 °F 62.6 °F 94% 30.00 in 1.2 mi Calm Calm - 0.21 in Rain Heavy Rain
11:28 AM 64.4 °F 62.6 °F 94% 29.99 in 1.0 mi Calm Calm - 0.31 in Rain Rain
11:31 AM 64.4 °F 62.6 °F 94% 29.99 in 1.5 mi Calm Calm - 0.32 in Rain Rain
11:34 AM 66.2 °F 62.6 °F 88% 30.00 in 3.0 mi Calm Calm - 0.33 in Rain Rain
11:56 AM 66.0 °F 63.0 °F 90% 29.97 in 5.0 mi Calm Calm - 0.34 in Rain Light Rain
12:19 PM 66.2 °F 62.6 °F 88% 29.97 in 2.5 mi Calm Calm - 0.04 in Rain Heavy Rain
12:27 PM 66.2 °F 62.6 °F 88% 29.97 in 4.0 mi North 3.5 mph - 0.04 in Rain Light Rain
12:41 PM 66.2 °F 64.4 °F 94% 29.96 in 8.0 mi Calm Calm - 0.05 in Rain Light Rain
12:48 PM 66.2 °F 64.4 °F 94% 29.95 in 1.8 mi Variable 3.5 mph - 0.11 in Rain Heavy Rain
12:56 PM 66.0 °F 63.0 °F 90% 29.95 in 1.5 mi North 5.8 mph - 0.14 in Rain Rain
1:04 PM 66.2 °F 62.6 °F 88% 29.95 in 1.5 mi Variable 3.5 mph - 0.05 in Rain Rain
1:09 PM 66.2 °F 62.6 °F 88% 29.95 in 1.5 mi NNE 4.6 mph - 0.09 in Rain Heavy Rain
1:14 PM 66.2 °F 62.6 °F 88% 29.95 in 1.0 mi NE 3.5 mph - 0.14 in Rain Heavy Rain
1:21 PM 66.2 °F 62.6 °F 88% 29.95 in 0.8 mi Calm Calm - 0.23 in Rain Heavy Rain
1:27 PM 66.2 °F 62.6 °F 88% 29.95 in 1.2 mi North 4.6 mph - 0.26 in Rain Heavy Rain
1:33 PM 66.2 °F 62.6 °F 88% 29.96 in 1.5 mi NNW 5.8 mph - 0.31 in Rain Heavy Rain
1:35 PM 66.2 °F 62.6 °F 88% 29.96 in 1.2 mi NNW 5.8 mph - 0.32 in Rain Heavy Rain
1:37 PM 66.2 °F 62.6 °F 88% 29.95 in 1.0 mi North 5.8 mph - 0.35 in Rain Heavy Rain
1:40 PM 66.2 °F 62.6 °F 88% 29.96 in 1.2 mi North 6.9 mph - 0.36 in Rain Heavy Rain
1:44 PM 66.2 °F 62.6 °F 88% 29.96 in 1.5 mi North 6.9 mph - 0.36 in Rain Rain
1:47 PM 66.2 °F 64.4 °F 94% 29.96 in 3.0 mi North 9.2 mph - 0.36 in Rain Light Rain
1:56 PM 66.0 °F 63.0 °F 90% 29.95 in 10.0 mi North 5.8 mph - 0.36 in   Overcast
2:09 PM 66.2 °F 62.6 °F 88% 29.96 in 5.0 mi NNE 12.7 mph - 0.02 in Rain Light Rain
2:20 PM 64.4 °F 60.8 °F 88% 29.96 in 2.0 mi North 10.4 mph 19.6 mph 0.10 in Rain Heavy Rain
2:22 PM 64.4 °F 60.8 °F 88% 29.96 in 1.2 mi North 12.7 mph 18.4 mph 0.12 in Rain Heavy Rain
2:24 PM 64.4 °F 60.8 °F 88% 29.96 in 1.0 mi North 10.4 mph - 0.19 in Rain Heavy Rain
2:33 PM 64.4 °F 60.8 °F 88% 29.97 in 1.5 mi North 9.2 mph - 0.22 in Rain Light Rain
2:36 PM 64.4 °F 60.8 °F 88% 29.97 in 3.0 mi North 10.4 mph - 0.24 in Rain Heavy Rain
2:42 PM 64.4 °F 60.8 °F 88% 29.97 in 2.5 mi North 4.6 mph - 0.26 in Rain Light Rain
2:48 PM 64.4 °F 60.8 °F 88% 29.97 in 1.8 mi NNE 8.1 mph - 0.30 in Rain Heavy Rain
2:56 PM 64.0 °F 60.1 °F 87% 29.96 in 2.5 mi NE 10.4 mph - 0.32 in Rain Light Rain
3:03 PM 62.6 °F 60.8 °F 94% 29.96 in 4.0 mi NNE 9.2 mph - 0.01 in Rain Rain
3:19 PM 62.6 °F 59.0 °F 88% 29.97 in 1.5 mi NE 4.6 mph - 0.12 in Rain Heavy Rain
3:22 PM 62.6 °F 59.0 °F 88% 29.96 in 1.0 mi NE 6.9 mph - 0.13 in Rain Heavy Rain
3:28 PM 62.6 °F 59.0 °F 88% 29.97 in 1.8 mi East 4.6 mph - 0.14 in Rain Light Rain
3:42 PM 62.6 °F 60.8 °F 94% 29.96 in 3.0 mi Variable 4.6 mph - 0.24 in Rain Light Rain
3:56 PM 63.0 °F 60.1 °F 90% 29.95 in 10.0 mi ESE 4.6 mph - 0.24 in Rain Light Rain
4:56 PM 63.0 °F 60.1 °F 90% 29.96 in 7.0 mi Calm Calm - 0.02 in Rain Light Rain
4:59 PM 62.6 °F 60.8 °F 94% 29.97 in 5.0 mi NNW 9.2 mph - 0.01 in Rain Rain
5:09 PM 62.6 °F 60.8 °F 94% 29.96 in 2.5 mi North 5.8 mph - 0.07 in Rain Heavy Rain
5:35 PM 62.6 °F 60.8 °F 94% 29.98 in 9.0 mi NNW 8.1 mph - 0.18 in Rain Light Rain
5:56 PM 63.0 °F 60.1 °F 90% 29.97 in 10.0 mi North 9.2 mph - 0.18 in Rain Light Rain
6:11 PM 62.6 °F 59.0 °F 88% 30.01 in 1.8 mi North 16.1 mph 19.6 mph 0.16 in Rain Heavy Rain
6:17 PM 62.6 °F 59.0 °F 88% 30.01 in 1.0 mi North 20.7 mph 27.6 mph 0.31 in Rain Heavy Rain
6:22 PM 62.6 °F 59.0 °F 88% 30.01 in 1.5 mi North 17.3 mph 27.6 mph 0.33 in Rain Heavy Rain
6:26 PM 62.6 °F 59.0 °F 88% 30.02 in 3.0 mi NNW 12.7 mph 27.6 mph 0.34 in Rain Heavy Rain
6:44 PM 62.6 °F 57.2 °F 82% 30.03 in 4.0 mi NNW 15.0 mph - 0.40 in Rain Light Rain
6:56 PM 62.1 °F 57.9 °F 86% 30.03 in 10.0 mi North 15.0 mph 25.3 mph 0.40 in Rain Light Rain
7:56 PM 60.1 °F 55.9 °F 86% 30.05 in 10.0 mi North 11.5 mph - 0.06 in   Overcast
8:56 PM 59.0 °F 54.0 °F 83% 30.05 in 10.0 mi Variable 4.6 mph - 0.00 in   Overcast
9:56 PM 57.9 °F 55.0 °F 90% 30.06 in 10.0 mi North 3.5 mph - 0.03 in Rain Light Rain
10:56 PM 57.9 °F 55.0 °F 90% 30.09 in 10.0 mi Calm Calm - 0.07 in Rain Light Rain
11:43 PM 57.2 °F 55.4 °F 94% 30.09 in 10.0 mi NNE 4.6 mph - 0.04 in Rain Light Rain
11:56 PM 57.9 °F 54.0 °F 87% 30.09 in 10.0 mi North 6.9 mph - 0.04 in Rain Light Rain